Time,TemperatureF,DewpointF,PressureIn,WindDirection,WindDirectionDegrees,WindSpeedMPH,WindSpeedGustMPH,Humidity,HourlyPrecipIn,Conditions,Clouds,dailyrainin,SoftwareType,DateUTC
2013-01-22 00:09:00,-0.1,-6.0,30.47,WNW,300,9.0,13.0,76,0.00,,,0.00,weatherlink.com 1.10,2013-01-22 06:09:00,
2013-01-22 00:24:00,-0.3,-6.0,30.47,WNW,295,9.0,14.0,76,0.00,,,0.00,weatherlink.com 1.10,2013-01-22 06:24:00,
2013-01-22 00:39:00,-0.5,-6.0,30.46,NW,311,7.0,13.0,76,0.00,,,0.00,weatherlink.com 1.10,2013-01-22 06:39:00,
2013-01-22 00:54:00,-0.9,-7.0,30.47,WNW,298,10.0,10.0,77,0.00,,,0.00,weatherlink.com 1.10,2013-01-22 06:54:00,
2013-01-22 01:09:00,-0.9,-6.0,30.47,NW,312,5.0,10.0,78,0.00,,,0.00,weatherlink.com 1.10,2013-01-22 07:09:00,
2013-01-22 01:24:00,-1.4,-6.0,30.47,WNW,287,4.0,6.0,79,0.00,,,0.00,weatherlink.com 1.10,2013-01-22 07:24:00,
2013-01-22 01:39:00,-1.4,-6.0,30.47,West,276,2.0,5.0,80,0.00,,,0.00,weatherlink.com 1.10,2013-01-22 07:39:00,
2013-01-22 01:54:00,-1.0,-6.0,30.47,WNW,291,4.0,5.0,80,0.00,,,0.00,weatherlink.com 1.10,2013-01-22 07:54:00,
2013-01-22 02:09:00,-0.8,-6.0,30.48,WNW,298,5.0,8.0,80,0.00,,,0.00,weatherlink.com 1.10,2013-01-22 08:09:00,
2013-01-22 02:25:00,-1.2,-6.0,30.47,NW,312,3.0,6.0,80,0.00,,,0.00,weatherlink.com 1.10,2013-01-22 08:25:00,
2013-01-22 02:39:00,-1.6,-6.0,30.48,WNW,294,4.0,6.0,80,0.00,,,0.00,weatherlink.com 1.10,2013-01-22 08:39:00,
2013-01-22 02:55:00,-1.9,-6.0,30.47,NW,307,2.0,6.0,81,0.00,,,0.00,weatherlink.com 1.10,2013-01-22 08:55:00,
2013-01-22 03:10:00,-2.1,-7.0,30.48,WNW,303,1.0,3.0,81,0.00,,,0.00,weatherlink.com 1.10,2013-01-22 09:10:00,
2013-01-22 03:25:00,-2.2,-7.0,30.48,WNW,302,3.0,4.0,81,0.00,,,0.00,weatherlink.com 1.10,2013-01-22 09:25:00,
2013-01-22 03:40:00,-2.7,-7.0,30.48,WNW,291,3.0,4.0,81,0.00,,,0.00,weatherlink.com 1.10,2013-01-22 09:40:00,
2013-01-22 03:55:00,-2.6,-8.0,30.48,NW,304,4.0,5.0,78,0.00,,,0.00,weatherlink.com 1.10,2013-01-22 09:55:00,
2013-01-22 04:10:00,-2.8,-9.0,30.48,WNW,295,3.0,5.0,76,0.00,,,0.00,weatherlink.com 1.10,2013-01-22 10:10:00,
2013-01-22 04:25:00,-3.7,-9.0,30.47,SW,229,0.0,4.0,77,0.00,,,0.00,weatherlink.com 1.10,2013-01-22 10:25:00,
2013-01-22 04:40:00,-4.6,-10.0,30.47,West,262,2.0,3.0,79,0.00,,,0.00,weatherlink.com 1.10,2013-01-22 10:40:00,
2013-01-22 04:55:00,-5.1,-10.0,30.48,West,281,2.0,4.0,80,0.00,,,0.00,weatherlink.com 1.10,2013-01-22 10:55:00,
2013-01-22 05:10:00,-4.4,-9.0,30.48,NW,307,3.0,4.0,80,0.00,,,0.00,weatherlink.com 1.10,2013-01-22 11:10:00,
2013-01-22 05:25:00,-3.5,-9.0,30.47,NW,307,2.0,3.0,77,0.00,,,0.00,weatherlink.com 1.10,2013-01-22 11:25:00,
2013-01-22 05:40:00,-3.4,-9.0,30.47,NW,312,2.0,4.0,76,0.00,,,0.00,weatherlink.com 1.10,2013-01-22 11:40:00,
2013-01-22 05:56:00,-4.5,-10.0,30.48,NW,311,1.0,2.0,77,0.00,,,0.00,weatherlink.com 1.10,2013-01-22 11:56:00,
2013-01-22 06:11:00,-5.2,-10.0,30.48,NNE,25,0.0,1.0,79,0.00,,,0.00,weatherlink.com 1.10,2013-01-22 12:11:00,
2013-01-22 06:26:00,-5.6,-10.0,30.47,NNE,26,0.0,0.0,80,0.00,,,0.00,weatherlink.com 1.10,2013-01-22 12:26:00,
2013-01-22 06:41:00,-5.9,-11.0,30.48,NNE,25,0.0,1.0,80,0.00,,,0.00,weatherlink.com 1.10,2013-01-22 12:41:00,
2013-01-22 07:11:00,-5.5,-10.0,30.50,SW,228,0.0,0.0,80,0.00,,,0.00,weatherlink.com 1.10,2013-01-22 13:11:00,
2013-01-22 07:26:00,-5.0,-10.0,30.49,SW,229,0.0,1.0,80,0.00,,,0.00,weatherlink.com 1.10,2013-01-22 13:26:00,
2013-01-22 08:11:00,-1.9,-7.0,30.49,North,11,0.0,1.0,79,0.00,,,0.00,weatherlink.com 1.10,2013-01-22 14:11:00,
2013-01-22 08:26:00,-1.1,-7.0,30.48,WSW,239,0.0,1.0,76,0.00,,,0.00,weatherlink.com 1.10,2013-01-22 14:26:00,
2013-01-22 08:41:00,-0.4,-6.0,30.48,WSW,242,0.0,1.0,78,0.00,,,0.00,weatherlink.com 1.10,2013-01-22 14:41:00,
2013-01-22 08:56:00,0.5,-6.0,30.49,WNW,301,2.0,4.0,73,0.00,,,0.00,weatherlink.com 1.10,2013-01-22 14:56:00,
2013-01-22 09:11:00,1.1,-6.0,30.49,WSW,255,4.0,5.0,72,0.00,,,0.00,weatherlink.com 1.10,2013-01-22 15:11:00,
2013-01-22 09:27:00,1.4,-6.0,30.49,West,259,4.0,8.0,71,0.00,,,0.00,weatherlink.com 1.10,2013-01-22 15:27:00,
2013-01-22 09:42:00,1.8,-6.0,30.50,WSW,242,4.0,8.0,70,0.00,,,0.00,weatherlink.com 1.10,2013-01-22 15:42:00,
2013-01-22 09:57:00,2.3,-6.0,30.50,West,265,2.0,8.0,69,0.00,,,0.00,weatherlink.com 1.10,2013-01-22 15:57:00,
2013-01-22 10:12:00,3.0,-5.0,30.51,West,263,5.0,7.0,69,0.00,,,0.00,weatherlink.com 1.10,2013-01-22 16:12:00,
2013-01-22 10:27:00,3.4,-5.0,30.51,West,271,6.0,8.0,68,0.00,,,0.00,weatherlink.com 1.10,2013-01-22 16:27:00,
2013-01-22 10:42:00,3.6,-5.0,30.52,West,260,6.0,10.0,68,0.00,,,0.00,weatherlink.com 1.10,2013-01-22 16:42:00,
2013-01-22 10:57:00,4.2,-4.0,30.51,West,273,4.0,8.0,68,0.00,,,0.00,weatherlink.com 1.10,2013-01-22 16:57:00,
2013-01-22 11:12:00,4.8,-4.0,30.51,West,260,6.0,9.0,68,0.00,,,0.00,weatherlink.com 1.10,2013-01-22 17:12:00,
2013-01-22 11:28:00,5.2,-4.0,30.50,West,273,7.0,8.0,67,0.00,,,0.00,weatherlink.com 1.10,2013-01-22 17:28:00,
2013-01-22 11:42:00,5.9,-3.0,30.49,WSW,250,8.0,12.0,67,0.00,,,0.00,weatherlink.com 1.10,2013-01-22 17:42:00,
2013-01-22 11:57:00,6.3,-2.0,30.48,WSW,255,5.0,9.0,68,0.00,,,0.00,weatherlink.com 1.10,2013-01-22 17:57:00,
2013-01-22 12:12:00,6.8,-2.0,30.48,WSW,242,6.0,12.0,68,0.00,,,0.00,weatherlink.com 1.10,2013-01-22 18:12:00,
2013-01-22 12:27:00,7.4,-2.0,30.48,West,259,8.0,10.0,67,0.00,,,0.00,weatherlink.com 1.10,2013-01-22 18:27:00,
2013-01-22 12:43:00,7.9,0.0,30.47,West,274,11.0,11.0,69,0.00,,,0.00,weatherlink.com 1.10,2013-01-22 18:43:00,
2013-01-22 12:58:00,8.5,0.0,30.46,WSW,239,4.0,10.0,69,0.00,,,0.00,weatherlink.com 1.10,2013-01-22 18:58:00,
2013-01-22 13:13:00,8.6,-1.0,30.44,WNW,288,5.0,10.0,66,0.00,,,0.00,weatherlink.com 1.10,2013-01-22 19:13:00,
2013-01-22 13:28:00,8.8,0.0,30.44,West,261,4.0,11.0,68,0.00,,,0.00,weatherlink.com 1.10,2013-01-22 19:28:00,
2013-01-22 13:43:00,9.1,0.0,30.44,West,266,9.0,10.0,66,0.00,,,0.00,weatherlink.com 1.10,2013-01-22 19:43:00,
2013-01-22 13:58:00,9.6,1.0,30.43,WSW,252,8.0,12.0,67,0.00,,,0.00,weatherlink.com 1.10,2013-01-22 19:58:00,
2013-01-22 14:13:00,9.8,1.0,30.44,West,269,11.0,14.0,66,0.00,,,0.00,weatherlink.com 1.10,2013-01-22 20:13:00,
2013-01-22 14:28:00,10.1,1.0,30.43,West,264,8.0,10.0,68,0.00,,,0.00,weatherlink.com 1.10,2013-01-22 20:28:00,
2013-01-22 14:43:00,10.3,1.0,30.42,WSW,243,6.0,9.0,65,0.00,,,0.00,weatherlink.com 1.10,2013-01-22 20:43:00,
2013-01-22 14:58:00,10.6,1.0,30.42,WSW,251,4.0,10.0,64,0.00,,,0.00,weatherlink.com 1.10,2013-01-22 20:58:00,
2013-01-22 15:13:00,11.1,1.0,30.41,WSW,252,8.0,10.0,63,0.00,,,0.00,weatherlink.com 1.10,2013-01-22 21:13:00,
2013-01-22 15:28:00,11.4,0.0,30.41,WSW,257,6.0,10.0,61,0.00,,,0.00,weatherlink.com 1.10,2013-01-22 21:28:00,
2013-01-22 15:43:00,11.5,1.0,30.41,WSW,243,8.0,9.0,62,0.00,,,0.00,weatherlink.com 1.10,2013-01-22 21:43:00,
2013-01-22 15:58:00,11.0,1.0,30.41,West,262,3.0,8.0,63,0.00,,,0.00,weatherlink.com 1.10,2013-01-22 21:58:00,
2013-01-22 16:14:00,11.0,1.0,30.41,SW,219,4.0,7.0,64,0.00,,,0.00,weatherlink.com 1.10,2013-01-22 22:14:00,
2013-01-22 16:29:00,11.0,1.0,30.40,SSW,204,4.0,5.0,64,0.00,,,0.00,weatherlink.com 1.10,2013-01-22 22:29:00,
2013-01-22 16:44:00,11.2,2.0,30.40,SSW,211,5.0,6.0,65,0.00,,,0.00,weatherlink.com 1.10,2013-01-22 22:44:00,
2013-01-22 16:59:00,11.1,1.0,30.40,SSW,211,3.0,6.0,65,0.00,,,0.00,weatherlink.com 1.10,2013-01-22 22:59:00,
2013-01-22 17:14:00,10.9,2.0,30.40,WSW,255,3.0,5.0,66,0.00,,,0.00,weatherlink.com 1.10,2013-01-22 23:14:00,
2013-01-22 17:29:00,10.8,3.0,30.40,SW,217,2.0,4.0,69,0.00,,,0.00,weatherlink.com 1.10,2013-01-22 23:29:00,
2013-01-22 17:44:00,10.8,3.0,30.41,WSW,251,6.0,9.0,69,0.00,,,0.00,weatherlink.com 1.10,2013-01-22 23:44:00,
2013-01-22 17:59:00,10.7,3.0,30.40,SSW,194,2.0,6.0,71,0.00,,,0.00,weatherlink.com 1.10,2013-01-22 23:59:00,
2013-01-22 18:14:00,10.7,3.0,30.40,SSW,210,3.0,6.0,71,0.00,,,0.00,weatherlink.com 1.10,2013-01-23 00:14:00,
2013-01-22 18:29:00,10.6,3.0,30.39,SW,218,5.0,5.0,70,0.00,,,0.00,weatherlink.com 1.10,2013-01-23 00:29:00,
2013-01-22 18:44:00,10.6,3.0,30.40,SSW,196,2.0,6.0,70,0.00,,,0.00,weatherlink.com 1.10,2013-01-23 00:44:00,
2013-01-22 18:59:00,10.8,3.0,30.39,SW,217,2.0,6.0,70,0.00,,,0.00,weatherlink.com 1.10,2013-01-23 00:59:00,
2013-01-22 19:14:00,10.8,3.0,30.39,SSW,211,3.0,5.0,72,0.00,,,0.00,weatherlink.com 1.10,2013-01-23 01:14:00,
2013-01-22 19:30:00,10.8,3.0,30.39,South,184,4.0,7.0,72,0.00,,,0.00,weatherlink.com 1.10,2013-01-23 01:30:00,
2013-01-22 19:45:00,10.8,4.0,30.39,South,187,3.0,5.0,73,0.00,,,0.00,weatherlink.com 1.10,2013-01-23 01:45:00,
2013-01-22 20:00:00,10.9,4.0,30.38,SSW,198,5.0,6.0,74,0.00,,,0.00,weatherlink.com 1.10,2013-01-23 02:00:00,
2013-01-22 20:15:00,11.0,4.0,30.37,SSW,193,4.0,11.0,74,0.00,,,0.00,weatherlink.com 1.10,2013-01-23 02:15:00,
2013-01-22 20:30:00,11.0,4.0,30.37,South,185,5.0,9.0,74,0.00,,,0.00,weatherlink.com 1.10,2013-01-23 02:30:00,
2013-01-22 20:45:00,11.0,4.0,30.36,SSW,193,5.0,9.0,74,0.00,,,0.00,weatherlink.com 1.10,2013-01-23 02:45:00,
2013-01-22 21:00:00,11.1,4.0,30.36,South,188,4.0,9.0,74,0.00,,,0.00,weatherlink.com 1.10,2013-01-23 03:00:00,
2013-01-22 21:15:00,11.1,4.0,30.36,SSW,196,3.0,12.0,74,0.00,,,0.00,weatherlink.com 1.10,2013-01-23 03:15:00,
2013-01-22 21:30:00,11.3,5.0,30.36,SSW,195,6.0,9.0,76,0.00,,,0.00,weatherlink.com 1.10,2013-01-23 03:30:00,
2013-01-22 21:45:00,11.4,6.0,30.35,SSW,194,7.0,10.0,77,0.00,,,0.00,weatherlink.com 1.10,2013-01-23 03:45:00,
2013-01-22 22:00:00,11.5,6.0,30.35,SSW,198,9.0,11.0,78,0.00,,,0.00,weatherlink.com 1.10,2013-01-23 04:00:00,
2013-01-22 22:15:00,11.6,6.0,30.33,SSW,197,9.0,12.0,79,0.00,,,0.00,weatherlink.com 1.10,2013-01-23 04:15:00,
2013-01-22 22:30:00,11.9,7.0,30.34,SSW,196,7.0,11.0,81,0.00,,,0.00,weatherlink.com 1.10,2013-01-23 04:30:00,
2013-01-22 22:46:00,12.4,8.0,30.34,South,181,4.0,10.0,81,0.00,,,0.00,weatherlink.com 1.10,2013-01-23 04:46:00,
2013-01-22 23:16:00,12.8,8.0,30.32,SSW,203,8.0,13.0,82,0.00,,,0.00,weatherlink.com 1.10,2013-01-23 05:16:00,